Retour au catalogue

STARLINK-6122

ActifCommunicationsVLEO
NORAD 56128·PAYLOAD·🇺🇸 United States

Lancé Mar 29, 2023 depuis Cape Canaveral Space Force Station

Loading…

Prochains Passages (prochaines 24 heures)

TLE

FraisSource: CelesTrak SupGP

Époque: Sep 15, 2026, 01:30 UTC

1 56128C 23046AM  26258.06298611  .00015712  00000+0  56925-3 0  2586
2 56128  43.0012 157.9018 0001164 270.4739 236.2687 15.27562263    13

Suivez STARLINK-6122 en temps réel avec AllMySat

Download on the App Store